Beatrice, NE

3:47 PM CDT on August 21, 2017 (GMT -0500)
Beatrice Municipal

Weather History for KBIE - October, 2012

Change the Weather History Date:

Tuesday, October 9, 2012

  Actual Average Record
Temperature  
Mean Temperature 47 °F -  
Max Temperature 59 °F 70 °F 88 °F (1980)
Min Temperature 35 °F 46 °F 23 °F (2000)
Degree Days  
Heating Degree Days 18    
Moisture  
Dew Point 27 °F    
Average Humidity 42    
Maximum Humidity 64    
Minimum Humidity 19    
Precipitation  
Precipitation 0.00 in - - ()
Sea Level Pressure  
Sea Level Pressure 29.96 in    
Wind  
Wind Speed 11 mph (NW)    
Max Wind Speed 24 mph    
Max Gust Speed 29 mph    
Visibility 10 miles    
Events      
Averages and records for this station are not official NWS values.
T = Trace of Precipitation, MM = Missing Value Source: NWS Daily Summary

Daily Weather History Graph

Daily Weather History Graph

Search for Another Location

Airport or City:

Trip Planner

Search our weather history database for the weather conditions in past years. The results will help you decide how hot, cold, wet, or windy it might be!

Date:

Astronomy

Oct. 09, 2012 Rise Set
Actual Time 7:32 AM CDT 6:55 PM CDT
Civil Twilight 7:04 AM CDT 7:22 PM CDT
Nautical Twilight 6:33 AM CDT 7:54 PM CDT
Astronomical Twilight 6:01 AM CDT 8:25 PM CDT
Moon 1:09 AM CDT (10/9) 3:24 PM CDT (10/9)
Length of Visible Light 12h 17m
Length of Day
11h 23m
Last Quarter, 36% of the Moon is Illuminated
Oct 9
Last Quarter
Oct 15
New
Oct 21
First Quarter
Oct 29
Full
Nov 6
Last Quarter

Hourly Weather History & Observations

Time (CDT) Temp. Windchill Dew Point Humidity Pressure Visibility Wind Dir Wind Speed Gust Speed Precip Events Conditions
12:15 AM 57.6 °F - 29.1 °F 34% 29.83 in 10.0 mi SSW 17.3 mph 21.9 mph N/A   Clear
12:35 AM 57.4 °F - 29.8 °F 35% 29.83 in 10.0 mi SSW 17.3 mph 24.2 mph N/A   Clear
12:55 AM 57.4 °F - 30.2 °F 36% 29.83 in 10.0 mi SSW 17.3 mph 21.9 mph N/A   Clear
1:15 AM 57.2 °F - 30.6 °F 36% 29.83 in 10.0 mi SSW 17.3 mph 24.2 mph N/A   Clear
1:35 AM 56.8 °F - 30.7 °F 37% 29.84 in 10.0 mi SSW 16.1 mph 23.0 mph N/A   Clear
1:55 AM 56.5 °F - 31.1 °F 38% 29.84 in 10.0 mi SSW 12.7 mph - N/A   Clear
2:15 AM 56.3 °F - 30.9 °F 38% 29.87 in 10.0 mi West 6.9 mph - N/A   Clear
2:35 AM 55.4 °F - 32.0 °F 41% 29.87 in 10.0 mi WSW 9.2 mph - N/A   Clear
2:55 AM 55.4 °F - 32.0 °F 41% 29.86 in 10.0 mi SSW 6.9 mph - N/A   Clear
3:15 AM 53.2 °F - 32.0 °F 44% 29.85 in 10.0 mi SSW 5.8 mph - N/A   Clear
3:35 AM 52.0 °F - 32.0 °F 47% 29.86 in 10.0 mi SSW 4.6 mph - N/A   Clear
3:55 AM 50.7 °F - 32.0 °F 49% 29.85 in 10.0 mi SSW 5.8 mph - N/A   Clear
4:15 AM 50.2 °F - 32.0 °F 50% 29.85 in 10.0 mi SSW 6.9 mph - N/A   Clear
4:35 AM 49.8 °F - 32.0 °F 50% 29.85 in 10.0 mi South 6.9 mph - N/A   Clear
4:55 AM 49.3 °F - 32.0 °F 51% 29.84 in 10.0 mi South 9.2 mph - N/A   Clear
5:15 AM 49.3 °F - 32.0 °F 51% 29.85 in 10.0 mi SSW 8.1 mph - N/A   Clear
5:35 AM 48.6 °F - 32.0 °F 53% 29.84 in 10.0 mi South 9.2 mph - N/A   Clear
5:55 AM 48.2 °F - 32.0 °F 54% 29.84 in 10.0 mi South 10.4 mph - N/A   Clear
6:15 AM 48.6 °F - 32.0 °F 53% 29.84 in 10.0 mi SSW 9.2 mph - N/A   Clear
6:35 AM 48.2 °F - 32.0 °F 54% 29.85 in 10.0 mi South 8.1 mph - N/A   Clear
6:55 AM 47.3 °F - 32.4 °F 56% 29.85 in 10.0 mi South 5.8 mph - N/A   Clear
7:15 AM 47.5 °F - 32.9 °F 57% 29.85 in 10.0 mi SSW 5.8 mph - N/A   Clear
7:35 AM 48.0 °F - 32.7 °F 55% 29.85 in 10.0 mi SSW 3.5 mph - N/A   Clear
7:55 AM 47.5 °F - 33.1 °F 57% 29.86 in 10.0 mi SSW 4.6 mph - N/A   Clear
8:15 AM 47.3 °F - 33.3 °F 58% 29.87 in 10.0 mi Calm Calm - N/A   Clear
8:35 AM 46.4 °F 44.3 °F 34.7 °F 64% 29.88 in 10.0 mi NW 4.6 mph - N/A   Clear
8:55 AM 47.7 °F - 34.0 °F 59% 29.89 in 5.0 mi NW 4.6 mph - N/A   Haze
9:15 AM 49.1 °F - 33.4 °F 55% 29.90 in 10.0 mi WNW 4.6 mph - N/A   Clear
9:35 AM 50.0 °F - 33.1 °F 52% 29.90 in 10.0 mi Calm Calm - N/A   Clear
9:55 AM 51.3 °F - 33.1 °F 50% 29.91 in 10.0 mi WNW 4.6 mph - N/A   Clear
10:15 AM 52.3 °F - 33.4 °F 49% 29.91 in 10.0 mi WNW 3.5 mph - N/A   Clear
10:35 AM 55.4 °F - 36.3 °F 49% 29.94 in 10.0 mi North 5.8 mph - N/A   Scattered Clouds
10:55 AM 55.8 °F - 37.9 °F 51% 29.95 in 10.0 mi NNE 15.0 mph 19.6 mph N/A   Mostly Cloudy
11:15 AM 55.6 °F - 38.3 °F 52% 29.96 in 10.0 mi North 15.0 mph - N/A   Overcast
11:35 AM 56.3 °F - 38.5 °F 51% 29.96 in 10.0 mi North 17.3 mph 23.0 mph N/A   Overcast
11:55 AM 57.6 °F - 38.7 °F 49% 29.97 in 10.0 mi North 17.3 mph 26.5 mph N/A   Mostly Cloudy
12:15 PM 57.6 °F - 37.9 °F 48% 29.97 in 10.0 mi North 19.6 mph 25.3 mph N/A   Overcast
12:35 PM 56.8 °F - 36.3 °F 46% 29.97 in 10.0 mi North 24.2 mph - N/A   Overcast
12:55 PM 56.3 °F - 33.4 °F 42% 29.97 in 10.0 mi North 21.9 mph 28.8 mph N/A   Overcast
1:15 PM 56.5 °F - 33.3 °F 42% 29.98 in 10.0 mi NNE 19.6 mph - N/A   Mostly Cloudy
1:35 PM 56.8 °F - 31.8 °F 39% 29.98 in 10.0 mi North 18.4 mph 28.8 mph N/A   Scattered Clouds
1:55 PM 58.5 °F - 30.2 °F 34% 29.97 in 10.0 mi North 15.0 mph 23.0 mph N/A   Clear
2:15 PM 59.5 °F - 27.0 °F 29% 29.98 in 10.0 mi North 19.6 mph 25.3 mph N/A   Clear
2:35 PM 59.2 °F - 24.6 °F 27% 29.98 in 10.0 mi North 17.3 mph 23.0 mph N/A   Clear
2:55 PM 58.5 °F - 20.5 °F 23% 29.99 in 10.0 mi North 17.3 mph 25.3 mph N/A   Scattered Clouds
3:15 PM 58.5 °F - 17.2 °F 20% 30.00 in 10.0 mi North 18.4 mph 24.2 mph N/A   Clear
3:35 PM 58.1 °F - 16.3 °F 20% 30.01 in 10.0 mi North 17.3 mph 21.9 mph N/A   Scattered Clouds
3:55 PM 56.8 °F - 17.1 °F 21% 30.01 in 10.0 mi North 15.0 mph - N/A   Scattered Clouds
4:15 PM 57.2 °F - 16.9 °F 21% 30.02 in 10.0 mi NNW 17.3 mph - N/A   Mostly Cloudy
4:35 PM 57.4 °F - 16.2 °F 20% 30.03 in 10.0 mi North 16.1 mph - N/A   Scattered Clouds
4:55 PM 57.6 °F - 15.8 °F 19% 30.03 in 10.0 mi North 16.1 mph - N/A   Clear
5:15 PM 57.2 °F - 16.0 °F 20% 30.03 in 10.0 mi NNW 13.8 mph - N/A   Clear
5:35 PM 56.8 °F - 15.6 °F 20% 30.03 in 10.0 mi North 11.5 mph - N/A   Clear
5:55 PM 56.3 °F - 15.4 °F 20% 30.04 in 10.0 mi NNW 15.0 mph - N/A   Clear
6:15 PM 55.4 °F - 15.6 °F 21% 30.04 in 10.0 mi NNW 12.7 mph - N/A   Clear
6:35 PM 53.4 °F - 16.9 °F 24% 30.05 in 10.0 mi North 6.9 mph - N/A   Clear
6:55 PM 48.7 °F - 18.0 °F 29% 30.05 in 10.0 mi North 5.8 mph - N/A   Clear
7:15 PM 45.5 °F 42.5 °F 18.7 °F 34% 30.06 in 10.0 mi North 5.8 mph - N/A   Clear
7:35 PM 44.6 °F 40.7 °F 17.8 °F 34% 30.06 in 10.0 mi North 6.9 mph - N/A   Clear
7:55 PM 40.1 °F 36.1 °F 18.7 °F 42% 30.07 in 10.0 mi North 5.8 mph - N/A   Clear
8:15 PM 40.3 °F 37.1 °F 19.2 °F 43% 30.08 in 10.0 mi NNW 4.6 mph - N/A   Clear
8:35 PM 39.7 °F - 19.4 °F 44% 30.09 in 10.0 mi Calm Calm - N/A   Clear
8:55 PM 39.4 °F - 19.4 °F 45% 30.10 in 10.0 mi Calm Calm - N/A   Clear
9:15 PM 38.3 °F - 19.6 °F 47% 30.11 in 10.0 mi Calm Calm - N/A   Clear
9:35 PM 39.6 °F - 19.4 °F 44% 30.12 in 10.0 mi Calm Calm - N/A   Clear
9:55 PM 39.2 °F 37.0 °F 21.4 °F 49% 30.13 in 10.0 mi West 3.5 mph - N/A   Clear
10:15 PM 36.5 °F 33.9 °F 22.3 °F 56% 30.13 in 10.0 mi WSW 3.5 mph - N/A   Clear
10:35 PM 36.1 °F - 22.5 °F 58% 30.14 in 10.0 mi Calm Calm - N/A   Clear
10:55 PM 37.4 °F - 21.7 °F 53% 30.15 in 10.0 mi Calm Calm - N/A   Clear
11:15 PM 35.6 °F - 21.9 °F 58% 30.15 in 10.0 mi Calm Calm - N/A   Clear
11:35 PM 36.1 °F - 21.9 °F 56% 30.16 in 10.0 mi Calm Calm - N/A   Clear
11:55 PM 36.7 °F - 21.0 °F 53% 30.17 in 10.0 mi Calm Calm - N/A   Clear